Regional Weather Roundup
Issued by NWS

Home | Current Version | Previous Version | Text Only | Print | Product List | Glossary Off
Versions: 1 2 3 4 5 6 7 8 9 10 11 12 13 14 15 16 17 18 19 20 21 22 23 24 25 26 27 28 29 30 31 32 33 34 35 36 37 38 39 40 41 42 43 44 45 46 47 48 49 50

000
ASUS43 KOAX 011210
RWRNE

WEATHER ROUNDUP FOR NEBRASKA
NATIONAL WEATHER SERVICE OMAHA NE
700 AM CDT MON SEP 01 2014

NOTES: SATELLITE DATA IS BEING USED TO AUGMENT CLOUD COVER ABOVE
       12000 FEET.
       "FAIR" INDICATES FEW OR NO CLOUDS BELOW 12,000 FEET WITH NO
       SIGNIFICANT WEATHER AND/OR OBSTRUCTIONS TO VISIBILITY.

  * THESE STATIONS DO NOT REPORT WEATHER SUCH AS RAIN...SNOW OR FOG.

NEZ001>004-019>022-054>056-011300-
NEBRASKA PANHANDLE

CITY           SKY/WX    TMP DP  RH WIND       PRES   REMARKS
SCOTTSBLUFF    CLEAR     48  47  96 NW6       30.00S
6HR MIN TEMP:  47; 6HR MAX TEMP:  52;

ALLIANCE       PTCLDY    46  44  93 SW9       29.98R
6HR MIN TEMP:  44; 6HR MAX TEMP:  49;

CHADRON        PTCLDY    48  46  93 SW3       29.95R
6HR MIN TEMP:  47; 6HR MAX TEMP:  52;

KIMBALL        PTCLDY    45  43  95 W8        30.02S
SIDNEY         MOCLDY    48  44  86 NW7       30.01S
6HR MIN TEMP:  48; 6HR MAX TEMP:  52;

$$

NEZ057>060-069>072-079>082-011300-
SOUTHWEST NEBRASKA

CITY           SKY/WX    TMP DP  RH WIND       PRES   REMARKS
NORTH PLATTE   CLEAR     50  49  96 SW3       29.95R
6HR MIN TEMP:  49; 6HR MAX TEMP:  55;

IMPERIAL       PTCLDY    52  48  86 NW6       29.98R
6HR MIN TEMP:  51; 6HR MAX TEMP:  58;

LEXINGTON      CLEAR     52  51  96 W7        29.92R
MCCOOK         MOCLDY    56  52  86 W9        29.94S
6HR MIN TEMP:  55; 6HR MAX TEMP:  63;

OGALLALA       PTCLDY    50  47  91 NW3       29.96R
$$

NEZ005>010-023>029-035>040-094-011300-
NORTH CENTRAL NEBRASKA

CITY           SKY/WX    TMP DP  RH WIND       PRES   REMARKS
VALENTINE      CLEAR     50  49  96 SW9       29.91R
6HR MIN TEMP:  50; 6HR MAX TEMP:  55;

AINSWORTH      CLEAR     52  51  95 W3        29.90R
BROKEN BOW     CLEAR     55  52  89 NW12      29.90R
6HR MIN TEMP:  54; 6HR MAX TEMP:  59;

O`NEILL        CLEAR     57  56  96 W8        29.85R
ORD            CLEAR     55  53  93 NW8       29.86R
6HR MIN TEMP:  55; 6HR MAX TEMP:  61;

THEDFORD       CLEAR     51  49  96 W5        29.95R
$$

NEZ041-046>049-061>064-073>077-083>087-011300-
SOUTH CENTRAL NEBRASKA

CITY           SKY/WX    TMP DP  RH WIND       PRES   REMARKS
GRAND ISLAND   CLEAR     57  54  89 NW9       29.86R
6HR MIN TEMP:  57; 6HR MAX TEMP:  65;

AURORA         CLEAR     57  57  99 NW9       29.84S
HASTINGS       CLEAR     57  53  86 NW12      29.86R
6HR MIN TEMP:  57; 6HR MAX TEMP:  64;

HEBRON         CLEAR     60  56  84 NW7       29.85R
HOLDREGE       PTCLDY    56  53  91 CALM      29.90R
KEARNEY *      PTCLDY    55  52  88 W8        29.89R
YORK           CLEAR     59 N/A N/A NW13      29.83R
$$

NEZ011>018-030>034-042>045-011300-
NORTHEAST NEBRASKA

CITY           SKY/WX    TMP DP  RH WIND       PRES   REMARKS
NORFOLK        CLEAR     59  57  93 W7        29.81R
6HR MIN TEMP:  59; 6HR MAX TEMP:  62;

ALBION         CLEAR     57  54  88 NW6       29.85R
BLAIR          CLOUDY    64  63  94 W6        29.78R FOG
FREMONT        CLEAR     62  60  94 W3        29.79R
TEKAMAH        PTCLDY    62  60  93 W5        29.77R
6HR MIN TEMP:  61; 6HR MAX TEMP:  65;

WAYNE          CLEAR     60  59  96 W8        29.79R
$$

NEZ050>053-065>068-078-088>093-011300-
SOUTHEAST NEBRASKA

CITY           SKY/WX    TMP DP  RH WIND       PRES   REMARKS
LINCOLN        CLEAR     62  58  86 CALM      29.82R
6HR MIN TEMP:  61; 6HR MAX TEMP:  68;

OMAHA EPPLEY   MOCLDY    67  63  87 SW9       29.77R
6HR MIN TEMP:  67; 6HR MAX TEMP:  71;

BEATRICE       MOCLDY    66  66  99 W5        29.83R
FALLS CITY     CLOUDY    69  65  86 SW10      29.82R
6HR MIN TEMP:  67; 6HR MAX TEMP:  69; 6HR PCP:  0.04;

NEBRASKA CITY  PTCLDY    67  67 100 SW14      29.80R
PLATTSMOUTH    CLOUDY    68  64  89 SW8       29.78R
$$

NEZ044-045-051>053-067-011300-
OMAHA AREA

CITY           SKY/WX    TMP DP  RH WIND       PRES   REMARKS
OMAHA EPPLEY   MOCLDY    67  63  87 SW9       29.77R
6HR MIN TEMP:  67; 6HR MAX TEMP:  71;

BLAIR          CLOUDY    64  63  94 W6        29.78R FOG
FREMONT        CLEAR     62  60  94 W3        29.79R
MILLARD        CLOUDY    67  64  89 W3        29.78R
OFFUTT AFB     MOCLDY    68  68 100 S3        29.77R
PLATTSMOUTH    CLOUDY    68  64  89 SW8       29.78R
WAHOO          FAIR      62  59  90 NW7       29.79R
$$


USA.gov is the U.S. government's official web portal to all federal, state and local government web resources and services.